This demonstration page uses our WeatherBlox Daily Observations layout. Learn more.

Left ArrowRight Arrow

Hourly Observations for January 3, 2017

Temp ( °F °C ) Dew Point ( °F °C ) Humidity (%) Winds ( mph kmh ) Pressure ( in mb ) Visibility ( mi km ) Precip ( " mm )
12:53 am 00:53 Cloudy 43 6.1 40 4.4 89 89 SSW 6 9 30.02 1017 10 16 0.00 0.00
1:53 am 01:53 Cloudy 41 5 38 3.3 89 89 WNW 5 7 30.04 1017 10 16 0.00 0.00
2:53 am 02:53 Cloudy 41 5 38 3.3 89 89 WNW 6 9 30.06 1018 10 16 0.00 0.00
3:53 am 03:53 Cloudy with Light Rain 41 5 38 3.3 89 89 W 6 9 30.05 1018 10 16 0.00 0.00
4:53 am 04:53 Cloudy 41 5 38 3.3 89 89 W 3 6 30.04 1017 10 16 0.01 0.25
5:34 am 05:34 Cloudy with Mist and Fog 41 5 39 4 93 93 W 5 7 30.03 1017 6 10 0.00 0.00
5:53 am 05:53 Cloudy with Mist and Fog 41 5 39 3.9 93 93 W 6 9 30.04 1017 6 10 0.00 0.00
6:53 am 06:53 Cloudy with Mist and Fog 40 4.4 40 4.4 100 100 W 6 9 30.04 1017 6 10 0.03 0.76
7:53 am 07:53 Cloudy 41 5 40 4.4 96 96 SW 3 6 30.03 1017 10 16 0.01 0.25
8:53 am 08:53 Cloudy with Light Rain 41 5 40 4.4 96 96 SW 3 6 30.04 1017 10 16 0.00 0.00
9:53 am 09:53 Cloudy 41 5 40 4.4 96 96 W 5 7 30.06 1018 10 16 0.03 0.76
10:21 am 10:21 Cloudy with Light Rain 42 5.6 40 4.4 92 92 W 6 9 30.06 1018 2 3 0.00 0.00
10:53 am 10:53 Cloudy with Light Rain 42 5.6 41 5 96 96 W 5 7 30.05 1018 2 3 0.02 0.51
11:00 am 11:00 Cloudy with Light Rain 43 6 41 5 93 93 WNW 5 7 30.06 1018 6 10 0.00 0.00
11:53 am 11:53 Cloudy with Light Rain 42 5.6 42 5.6 100 100 Calm 30.02 1017 5 8 0.05 1.27
12:53 pm 12:53 Cloudy with Light Rain 43 6.1 42 5.6 97 97 ENE 6 9 29.99 1016 6 10 0.10 2.54
1:27 pm 13:27 Cloudy with Light Rain 44 6.7 43 6.1 96 96 Calm 29.97 1015 5 8 0.04 1.02
1:44 pm 13:44 Cloudy with Light Rain 45 7 43 6 93 93 Calm 29.97 1015 4 6 0.00 0.00
1:53 pm 13:53 Cloudy with Rain 44 6.7 43 6.1 96 96 Calm 29.95 1014 4 6 0.07 1.78
2:00 pm 14:00 Cloudy with Light Rain 45 7 43 6 93 93 NE 7 11 29.94 1014 4 6 0.00 0.00
2:11 pm 14:11 Cloudy with Light Rain 44 6.7 43 6.1 96 96 ENE 7 11 29.94 1014 6 10 0.03 0.76
2:21 pm 14:21 Cloudy with Light Rain 44 6.7 43 6.1 96 96 ENE 7 11 29.94 1014 5 8 0.04 1.02
2:53 pm 14:53 Cloudy with Rain 44 6.7 43 6.1 96 96 ENE 6 9 29.91 1013 5 8 0.10 2.54
3:07 pm 15:07 Cloudy with Rain 43 6.1 42 5.6 97 97 ENE 6 9 29.94 1014 4 6 0.02 0.51
3:45 pm 15:45 Cloudy with Rain 43 6.1 42 5.6 97 97 NNE 6 9 29.91 1013 4 6 0.09 2.29
3:53 pm 15:53 Cloudy with Rain 43 6.1 42 5.6 97 97 N 7 11 29.89 1012 3 5 0.10 2.54
4:04 pm 16:04 Cloudy with Light Rain 43 6 43 6 100 100 N 5 7 29.91 1013 3 4 0.00 0.00
4:48 pm 16:48 Cloudy with Rain 43 6 43 6 100 100 N 3 6 29.91 1013 4 6 0.00 0.00
4:53 pm 16:53 Cloudy with Rain 43 6.1 42 5.6 97 97 NNE 5 7 29.87 1012 4 6 0.12 3.05
5:08 pm 17:08 Cloudy with Rain 43 6 43 6 100 100 N 5 7 29.88 1012 6 10 0.00 0.00
5:30 pm 17:30 Cloudy with Rain 43 6 43 6 100 100 N 6 9 29.88 1012 4 6 0.00 0.00
5:53 pm 17:53 Cloudy with Rain 41 5 41 5 100 100 NW 6 9 29.85 1011 3 5 0.22 5.59
6:19 pm 18:19 Cloudy with Rain 40 4.4 39 3.9 97 97 NW 6 9 29.88 1012 3 5 0.10 2.54
6:38 pm 18:38 Cloudy with Rain 39 4 39 4 100 100 NNW 8 13 29.85 1011 5 8 0.00 0.00
6:53 pm 18:53 Cloudy with Rain 40 4.4 38 3.3 93 93 NW 7 11 29.83 1010 6 10 0.21 5.33
7:53 pm 19:53 Cloudy with Light Rain 39 3.9 38 3.3 96 96 NW 9 15 29.81 1009 6 10 0.11 2.79
8:01 pm 20:01 Cloudy with Rain 39 3.9 38 3.3 96 96 WNW 6 9 29.83 1010 6 10 0.01 0.25
8:53 pm 20:53 Cloudy with Light Rain 39 3.9 39 3.9 100 100 NNW 5 7 29.79 1009 6 10 0.12 3.05
9:53 pm 21:53 Cloudy with Light Rain 40 4.4 39 3.9 97 97 NW 7 11 29.78 1008 5 8 0.16 4.06
10:46 pm 22:46 Cloudy with Light Rain 39 4 39 4 100 100 NW 5 7 29.80 1009 3 5 0.00 0.00
10:53 pm 22:53 Cloudy with Light Rain 40 4.4 40 4.4 100 100 Calm 29.76 1008 3 5 0.06 1.52
11:00 pm 23:00 Cloudy with Light Rain 39 4 39 4 100 100 NW 6 9 29.77 1008 2 3 0.00 0.00
11:19 pm 23:19 Cloudy with Rain 41 5 40 4.4 96 96 WNW 7 11 29.77 1008 2 3 0.07 1.78
11:53 pm 23:53 Cloudy with Rain 41 5 41 5 100 100 ENE 5 7 29.75 1007 2 3 0.20 5.08

Powered by AerisWeather